Year,Month,Day,Hour,Minute,Value (Times are PST for temperature in C)
2013,05,05,00,00,13.70
2013,05,05,00,01,13.70
2013,05,05,00,02,13.70
2013,05,05,00,03,13.60
2013,05,05,00,04,13.60
2013,05,05,00,05,13.60
2013,05,05,00,06,13.50
2013,05,05,00,07,13.50
2013,05,05,00,08,13.40
2013,05,05,00,09,13.40
2013,05,05,00,10,13.40
2013,05,05,00,11,13.40
2013,05,05,00,12,13.40
2013,05,05,00,13,13.40
2013,05,05,00,14,13.30
2013,05,05,00,15,13.30
2013,05,05,00,16,13.30
2013,05,05,00,17,13.30
2013,05,05,00,18,13.30
2013,05,05,00,19,13.30
2013,05,05,00,20,13.30
2013,05,05,00,21,13.30
2013,05,05,00,22,13.30
2013,05,05,00,23,13.30
2013,05,05,00,24,13.30
2013,05,05,00,25,13.30
2013,05,05,00,26,13.20
2013,05,05,00,27,13.20
2013,05,05,00,28,13.20
2013,05,05,00,29,13.20
2013,05,05,00,30,13.20
2013,05,05,00,31,13.10
2013,05,05,00,32,13.10
2013,05,05,00,33,13.10
2013,05,05,00,34,13.10
2013,05,05,00,35,13.00
2013,05,05,00,36,13.00
2013,05,05,00,37,13.00
2013,05,05,00,38,13.00
2013,05,05,00,39,13.00
2013,05,05,00,40,12.90
2013,05,05,00,41,12.90
2013,05,05,00,42,12.90
2013,05,05,00,43,12.80
2013,05,05,00,44,12.80
2013,05,05,00,45,12.80
2013,05,05,00,46,12.80
2013,05,05,00,47,12.80
2013,05,05,00,48,12.80
2013,05,05,00,49,12.80
2013,05,05,00,50,12.80
2013,05,05,00,51,12.80
2013,05,05,00,52,12.70
2013,05,05,00,53,12.70
2013,05,05,00,54,12.70
2013,05,05,00,55,12.70
2013,05,05,00,56,12.70
2013,05,05,00,57,12.70
2013,05,05,00,58,12.70
2013,05,05,00,59,12.70
2013,05,05,01,00,12.70
2013,05,05,01,01,12.70
2013,05,05,01,02,12.70
2013,05,05,01,03,12.60
2013,05,05,01,04,12.60
2013,05,05,01,05,12.60
2013,05,05,01,06,12.60
2013,05,05,01,07,12.60
2013,05,05,01,08,12.60
2013,05,05,01,09,12.60
2013,05,05,01,10,12.60
2013,05,05,01,11,12.50
2013,05,05,01,12,12.50
2013,05,05,01,13,12.50
2013,05,05,01,14,12.50
2013,05,05,01,15,12.50
2013,05,05,01,16,12.50
2013,05,05,01,17,12.40
2013,05,05,01,18,12.40
2013,05,05,01,19,12.40
2013,05,05,01,20,12.40
2013,05,05,01,21,12.40
2013,05,05,01,22,12.40
2013,05,05,01,23,12.40
2013,05,05,01,24,12.40
2013,05,05,01,25,12.40
2013,05,05,01,26,12.30
2013,05,05,01,27,12.30
2013,05,05,01,28,12.30
2013,05,05,01,29,12.30
2013,05,05,01,30,12.30
2013,05,05,01,31,12.20
2013,05,05,01,32,12.20
2013,05,05,01,33,12.20
2013,05,05,01,34,12.20
2013,05,05,01,35,12.10
2013,05,05,01,36,12.10
2013,05,05,01,37,12.10
2013,05,05,01,38,12.10
2013,05,05,01,39,12.00
2013,05,05,01,40,12.00
2013,05,05,01,41,12.00
2013,05,05,01,42,12.00
2013,05,05,01,43,12.00
2013,05,05,01,44,11.90
2013,05,05,01,45,11.90
2013,05,05,01,46,11.90
2013,05,05,01,47,11.80
2013,05,05,01,48,11.80
2013,05,05,01,49,11.80
2013,05,05,01,50,11.80
2013,05,05,01,51,11.80
2013,05,05,01,52,11.80
2013,05,05,01,53,11.80
2013,05,05,01,54,11.80
2013,05,05,01,55,11.80
2013,05,05,01,56,11.80
2013,05,05,01,57,11.80
2013,05,05,01,58,11.80
2013,05,05,01,59,11.80
2013,05,05,02,00,11.80
2013,05,05,02,01,11.80
2013,05,05,02,02,11.80
2013,05,05,02,03,11.80
2013,05,05,02,04,11.80
2013,05,05,02,05,11.80
2013,05,05,02,06,11.80
2013,05,05,02,07,11.80
2013,05,05,02,08,11.70
2013,05,05,02,09,11.70
2013,05,05,02,10,11.60
2013,05,05,02,11,11.60
2013,05,05,02,12,11.60
2013,05,05,02,13,11.60
2013,05,05,02,14,11.60
2013,05,05,02,15,11.60
2013,05,05,02,16,11.50
2013,05,05,02,17,11.40
2013,05,05,02,18,11.40
2013,05,05,02,19,11.40
2013,05,05,02,20,11.40
2013,05,05,02,21,11.40
2013,05,05,02,22,11.40
2013,05,05,02,23,11.40
2013,05,05,02,24,11.40
2013,05,05,02,25,11.40
2013,05,05,02,26,11.40
2013,05,05,02,27,11.40
2013,05,05,02,28,11.40
2013,05,05,02,29,11.40
2013,05,05,02,30,11.40
2013,05,05,02,31,11.40
2013,05,05,02,32,11.40
2013,05,05,02,33,11.60
2013,05,05,02,34,11.60
2013,05,05,02,35,11.60
2013,05,05,02,36,11.60
2013,05,05,02,37,11.60
2013,05,05,02,38,11.60
2013,05,05,02,39,11.60
2013,05,05,02,40,11.70
2013,05,05,02,41,11.70
2013,05,05,02,42,11.70
2013,05,05,02,43,11.70
2013,05,05,02,44,11.70
2013,05,05,02,45,11.70
2013,05,05,02,46,11.70
2013,05,05,02,47,11.70
2013,05,05,02,48,11.70
2013,05,05,02,49,11.70
2013,05,05,02,50,11.60
2013,05,05,02,51,11.60
2013,05,05,02,52,11.60
2013,05,05,02,53,11.60
2013,05,05,02,54,11.60
2013,05,05,02,55,11.60
2013,05,05,02,56,11.60
2013,05,05,02,57,11.60
2013,05,05,02,58,11.80
2013,05,05,02,59,11.80
2013,05,05,03,00,11.80
2013,05,05,03,01,11.80
2013,05,05,03,02,11.80
2013,05,05,03,03,11.70
2013,05,05,03,04,11.70
2013,05,05,03,05,11.60
2013,05,05,03,06,11.60
2013,05,05,03,07,11.60
2013,05,05,03,08,11.50
2013,05,05,03,09,11.40
2013,05,05,03,10,11.40
2013,05,05,03,11,11.40
2013,05,05,03,12,11.40
2013,05,05,03,13,11.30
2013,05,05,03,14,11.30
2013,05,05,03,15,11.20
2013,05,05,03,16,11.20
2013,05,05,03,17,11.20
2013,05,05,03,18,11.20
2013,05,05,03,19,11.20
2013,05,05,03,20,11.20
2013,05,05,03,21,11.20
2013,05,05,03,22,11.10
2013,05,05,03,23,11.10
2013,05,05,03,24,11.10
2013,05,05,03,25,11.10
2013,05,05,03,26,11.10
2013,05,05,03,27,11.10
2013,05,05,03,28,11.10
2013,05,05,03,29,11.10
2013,05,05,03,30,11.10
2013,05,05,03,31,11.10
2013,05,05,03,32,11.10
2013,05,05,03,33,11.10
2013,05,05,03,34,11.10
2013,05,05,03,35,11.10
2013,05,05,03,36,11.10
2013,05,05,03,37,11.10
2013,05,05,03,38,11.10
2013,05,05,03,39,11.10
2013,05,05,03,40,11.20
2013,05,05,03,41,11.20
2013,05,05,03,42,11.40
2013,05,05,03,43,11.60
2013,05,05,03,44,11.80
2013,05,05,03,45,11.90
2013,05,05,03,46,12.20
2013,05,05,03,47,12.40
2013,05,05,03,48,12.60
2013,05,05,03,49,12.70
2013,05,05,03,50,12.80
2013,05,05,03,51,12.90
2013,05,05,03,52,13.00
2013,05,05,03,53,13.10
2013,05,05,03,54,13.30
2013,05,05,03,55,13.30
2013,05,05,03,56,13.40
2013,05,05,03,57,13.40
2013,05,05,03,58,13.50
2013,05,05,03,59,13.50
2013,05,05,04,00,13.50
2013,05,05,04,01,13.50
2013,05,05,04,02,13.60
2013,05,05,04,03,13.60
2013,05,05,04,04,13.60
2013,05,05,04,05,13.70
2013,05,05,04,06,13.70
2013,05,05,04,07,13.80
2013,05,05,04,08,13.90
2013,05,05,04,09,14.00
2013,05,05,04,10,14.10
2013,05,05,04,11,14.10
2013,05,05,04,12,14.20
2013,05,05,04,13,14.30
2013,05,05,04,14,14.50
2013,05,05,04,15,14.50
2013,05,05,04,16,14.60
2013,05,05,04,17,14.70
2013,05,05,04,18,14.70
2013,05,05,04,19,14.80
2013,05,05,04,20,14.80
2013,05,05,04,21,14.80
2013,05,05,04,22,14.90
2013,05,05,04,23,15.00
2013,05,05,04,24,15.10
2013,05,05,04,25,15.20
2013,05,05,04,26,15.30
2013,05,05,04,27,15.40
2013,05,05,04,28,15.50
2013,05,05,04,29,15.60
2013,05,05,04,30,15.60
2013,05,05,04,31,15.70
2013,05,05,04,32,15.70
2013,05,05,04,33,15.60
2013,05,05,04,34,15.60
2013,05,05,04,35,15.60
2013,05,05,04,36,15.50
2013,05,05,04,37,15.40
2013,05,05,04,38,15.20
2013,05,05,04,39,15.00
2013,05,05,04,40,14.60
2013,05,05,04,41,14.20
2013,05,05,04,42,13.90
2013,05,05,04,43,13.60
2013,05,05,04,44,13.30
2013,05,05,04,45,13.10
2013,05,05,04,46,12.90
2013,05,05,04,47,12.70
2013,05,05,04,48,12.60
2013,05,05,04,49,12.50
2013,05,05,04,50,12.40
2013,05,05,04,51,12.30
2013,05,05,04,52,12.30
2013,05,05,04,53,12.20
2013,05,05,04,54,12.20
2013,05,05,04,55,12.10
2013,05,05,04,56,12.10
2013,05,05,04,57,12.10
2013,05,05,04,58,12.10
2013,05,05,04,59,12.10
2013,05,05,05,00,12.10
2013,05,05,05,01,12.10
2013,05,05,05,02,12.10
2013,05,05,05,03,12.10
2013,05,05,05,04,12.10
2013,05,05,05,05,12.10
2013,05,05,05,06,12.10
2013,05,05,05,07,12.00
2013,05,05,05,08,12.00
2013,05,05,05,09,11.90
2013,05,05,05,10,11.90
2013,05,05,05,11,11.80
2013,05,05,05,12,11.80
2013,05,05,05,13,11.80
2013,05,05,05,14,11.80
2013,05,05,05,15,11.80
2013,05,05,05,16,11.80
2013,05,05,05,17,11.80
2013,05,05,05,18,11.70
2013,05,05,05,19,11.70
2013,05,05,05,20,11.70
2013,05,05,05,21,11.70
2013,05,05,05,22,11.60
2013,05,05,05,23,11.60
2013,05,05,05,24,11.60
2013,05,05,05,25,11.60
2013,05,05,05,26,11.60
2013,05,05,05,27,11.60
2013,05,05,05,28,11.50
2013,05,05,05,29,11.40
2013,05,05,05,30,11.40
2013,05,05,05,31,11.40
2013,05,05,05,32,11.40
2013,05,05,05,33,11.30
2013,05,05,05,34,11.30
2013,05,05,05,35,11.20
2013,05,05,05,36,11.20
2013,05,05,05,37,11.10
2013,05,05,05,38,11.10
2013,05,05,05,39,11.10
2013,05,05,05,40,11.10
2013,05,05,05,41,11.00
2013,05,05,05,42,10.90
2013,05,05,05,43,10.90
2013,05,05,05,44,10.90
2013,05,05,05,45,10.90
2013,05,05,05,46,10.90
2013,05,05,05,47,10.90
2013,05,05,05,48,10.90
2013,05,05,05,49,10.80
2013,05,05,05,50,10.80
2013,05,05,05,51,10.80
2013,05,05,05,52,10.80
2013,05,05,05,53,10.80
2013,05,05,05,54,10.80
2013,05,05,05,55,10.70
2013,05,05,05,56,10.70
2013,05,05,05,57,10.70
2013,05,05,05,58,10.60
2013,05,05,05,59,10.60
2013,05,05,06,00,10.60
2013,05,05,06,01,10.60
2013,05,05,06,02,10.60
2013,05,05,06,03,10.60
2013,05,05,06,04,10.60
2013,05,05,06,05,10.60
2013,05,05,06,06,10.50
2013,05,05,06,07,10.40
2013,05,05,06,08,10.40
2013,05,05,06,09,10.40
2013,05,05,06,10,10.40
2013,05,05,06,11,10.40
2013,05,05,06,12,10.40
2013,05,05,06,13,10.40
2013,05,05,06,14,10.40
2013,05,05,06,15,10.40
2013,05,05,06,16,10.50
2013,05,05,06,17,10.60
2013,05,05,06,18,10.60
2013,05,05,06,19,10.60
2013,05,05,06,20,10.60
2013,05,05,06,21,10.60
2013,05,05,06,22,10.60
2013,05,05,06,23,10.60
2013,05,05,06,24,10.40
2013,05,05,06,25,10.40
2013,05,05,06,26,10.40
2013,05,05,06,27,10.40
2013,05,05,06,28,10.40
2013,05,05,06,29,10.40
2013,05,05,06,30,10.30
2013,05,05,06,31,10.30
2013,05,05,06,32,10.30
2013,05,05,06,33,10.40
2013,05,05,06,34,10.40
2013,05,05,06,35,10.50
2013,05,05,06,36,10.60
2013,05,05,06,37,10.70
2013,05,05,06,38,10.80
2013,05,05,06,39,10.90
2013,05,05,06,40,11.00
2013,05,05,06,41,11.10
2013,05,05,06,42,11.20
2013,05,05,06,43,11.30
2013,05,05,06,44,11.40
2013,05,05,06,45,11.50
2013,05,05,06,46,11.60
2013,05,05,06,47,11.60
2013,05,05,06,48,11.70
2013,05,05,06,49,11.80
2013,05,05,06,50,11.80
2013,05,05,06,51,11.90
2013,05,05,06,52,11.90
2013,05,05,06,53,12.00
2013,05,05,06,54,12.00
2013,05,05,06,55,12.00
2013,05,05,06,56,12.00
2013,05,05,06,57,12.00
2013,05,05,06,58,11.90
2013,05,05,06,59,11.90
2013,05,05,07,00,11.80
2013,05,05,07,01,11.80
2013,05,05,07,02,11.80
2013,05,05,07,03,11.80
2013,05,05,07,04,11.80
2013,05,05,07,05,11.80
2013,05,05,07,06,11.80
2013,05,05,07,07,11.80
2013,05,05,07,08,11.80
2013,05,05,07,09,11.90
2013,05,05,07,10,11.90
2013,05,05,07,11,12.00
2013,05,05,07,12,12.00
2013,05,05,07,13,12.00
2013,05,05,07,14,12.10
2013,05,05,07,15,12.10
2013,05,05,07,16,12.20
2013,05,05,07,17,12.20
2013,05,05,07,18,12.30
2013,05,05,07,19,12.30
2013,05,05,07,20,12.30
2013,05,05,07,21,12.30
2013,05,05,07,22,12.40
2013,05,05,07,23,12.40
2013,05,05,07,24,12.50
2013,05,05,07,25,12.50
2013,05,05,07,26,12.60
2013,05,05,07,27,12.70
2013,05,05,07,28,12.80
2013,05,05,07,29,12.90
2013,05,05,07,30,13.00
2013,05,05,07,31,13.10
2013,05,05,07,32,13.20
2013,05,05,07,33,13.30
2013,05,05,07,34,13.40
2013,05,05,07,35,13.50
2013,05,05,07,36,13.60
2013,05,05,07,37,13.70
2013,05,05,07,38,13.90
2013,05,05,07,39,14.00
2013,05,05,07,40,14.10
2013,05,05,07,41,14.20
2013,05,05,07,42,14.20
2013,05,05,07,43,14.20
2013,05,05,07,44,14.30
2013,05,05,07,45,14.30
2013,05,05,07,46,14.30
2013,05,05,07,47,14.30
2013,05,05,07,48,14.30
2013,05,05,07,49,14.30
2013,05,05,07,50,14.30
2013,05,05,07,51,14.30
2013,05,05,07,52,14.30
2013,05,05,07,53,14.40
2013,05,05,07,54,14.40
2013,05,05,07,55,14.40
2013,05,05,07,56,14.50
2013,05,05,07,57,14.50
2013,05,05,07,58,14.50
2013,05,05,07,59,14.60
2013,05,05,08,00,14.60
2013,05,05,08,01,14.70
2013,05,05,08,02,14.70
2013,05,05,08,03,14.80
2013,05,05,08,04,14.80
2013,05,05,08,05,14.80
2013,05,05,08,06,14.90
2013,05,05,08,07,15.00
2013,05,05,08,08,15.10
2013,05,05,08,09,15.10
2013,05,05,08,10,15.20
2013,05,05,08,11,15.30
2013,05,05,08,12,15.40
2013,05,05,08,13,15.50
2013,05,05,08,14,15.70
2013,05,05,08,15,15.90
2013,05,05,08,16,16.10
2013,05,05,08,17,16.20
2013,05,05,08,18,16.30
2013,05,05,08,19,16.40
2013,05,05,08,20,16.40
2013,05,05,08,21,16.60
2013,05,05,08,22,16.70
2013,05,05,08,23,16.80
2013,05,05,08,24,16.90
2013,05,05,08,25,17.00
2013,05,05,08,26,17.10
2013,05,05,08,27,17.20
2013,05,05,08,28,17.30
2013,05,05,08,29,17.30
2013,05,05,08,30,17.30
2013,05,05,08,31,17.40
2013,05,05,08,32,17.40
2013,05,05,08,33,17.40
2013,05,05,08,34,17.40
2013,05,05,08,35,17.40
2013,05,05,08,36,17.40
2013,05,05,08,37,17.50
2013,05,05,08,38,17.50
2013,05,05,08,39,17.60
2013,05,05,08,40,17.70
2013,05,05,08,41,17.70
2013,05,05,08,42,17.70
2013,05,05,08,43,17.80
2013,05,05,08,44,17.80
2013,05,05,08,45,17.90
2013,05,05,08,46,17.90
2013,05,05,08,47,17.90
2013,05,05,08,48,17.90
2013,05,05,08,49,17.90
2013,05,05,08,50,17.90
2013,05,05,08,51,17.90
2013,05,05,08,52,17.90
2013,05,05,08,53,17.90
2013,05,05,08,54,17.90
2013,05,05,08,55,17.90
2013,05,05,08,56,17.90
2013,05,05,08,57,17.90
2013,05,05,08,58,17.90
2013,05,05,08,59,17.90
2013,05,05,09,00,17.90
2013,05,05,09,01,17.90
2013,05,05,09,02,17.90
2013,05,05,09,03,17.90
2013,05,05,09,04,17.90
2013,05,05,09,05,17.90
2013,05,05,09,06,17.90
2013,05,05,09,07,17.90
2013,05,05,09,08,17.90
2013,05,05,09,09,17.90
2013,05,05,09,10,17.90
2013,05,05,09,11,17.90
2013,05,05,09,12,17.90
2013,05,05,09,13,17.90
2013,05,05,09,14,17.90
2013,05,05,09,15,17.90
2013,05,05,09,16,17.90
2013,05,05,09,17,18.10
2013,05,05,09,18,18.10
2013,05,05,09,19,18.10
2013,05,05,09,20,18.10
2013,05,05,09,21,18.20
2013,05,05,09,22,18.20
2013,05,05,09,23,18.30
2013,05,05,09,24,18.40
2013,05,05,09,25,18.50
2013,05,05,09,26,18.50
2013,05,05,09,27,18.60
2013,05,05,09,28,18.60
2013,05,05,09,29,18.70
2013,05,05,09,30,18.80
2013,05,05,09,31,18.80
2013,05,05,09,32,18.80
2013,05,05,09,33,18.90
2013,05,05,09,34,18.90
2013,05,05,09,35,19.00
2013,05,05,09,36,19.10
2013,05,05,09,37,19.10
2013,05,05,09,38,19.30
2013,05,05,09,39,19.30
2013,05,05,09,40,19.40
2013,05,05,09,41,19.40
2013,05,05,09,42,19.40
2013,05,05,09,43,19.40
2013,05,05,09,44,19.40
2013,05,05,09,45,19.40
2013,05,05,09,46,19.40
2013,05,05,09,47,19.50
2013,05,05,09,48,19.50
2013,05,05,09,49,19.50
2013,05,05,09,50,19.50
2013,05,05,09,51,19.60
2013,05,05,09,52,19.60
2013,05,05,09,53,19.60
2013,05,05,09,54,19.70
2013,05,05,09,55,19.70
2013,05,05,09,56,19.80
2013,05,05,09,57,19.90
2013,05,05,09,58,19.90
2013,05,05,09,59,19.90
2013,05,05,10,00,19.90
2013,05,05,10,01,20.00
2013,05,05,10,02,20.10
2013,05,05,10,03,20.20
2013,05,05,10,04,20.20
2013,05,05,10,05,20.30
2013,05,05,10,06,20.30
2013,05,05,10,07,20.40
2013,05,05,10,08,20.50
2013,05,05,10,09,20.50
2013,05,05,10,10,20.50
2013,05,05,10,11,20.50
2013,05,05,10,12,20.50
2013,05,05,10,13,20.50
2013,05,05,10,14,20.50
2013,05,05,10,15,20.60
2013,05,05,10,16,20.60
2013,05,05,10,17,20.60
2013,05,05,10,18,20.60
2013,05,05,10,19,20.60
2013,05,05,10,20,20.60
2013,05,05,10,21,20.70
2013,05,05,10,22,20.70
2013,05,05,10,23,20.80
2013,05,05,10,24,20.80
2013,05,05,10,25,20.90
2013,05,05,10,26,20.90
2013,05,05,10,27,21.00
2013,05,05,10,28,21.10
2013,05,05,10,29,21.20
2013,05,05,10,30,21.30
2013,05,05,10,31,21.30
2013,05,05,10,32,21.30
2013,05,05,10,33,21.30
2013,05,05,10,34,21.30
2013,05,05,10,35,21.30
2013,05,05,10,36,21.30
2013,05,05,10,37,21.30
2013,05,05,10,38,21.30
2013,05,05,10,39,21.30
2013,05,05,10,40,21.30
2013,05,05,10,41,21.30
2013,05,05,10,42,21.30
2013,05,05,10,43,21.30
2013,05,05,10,44,21.30
2013,05,05,10,45,21.20
2013,05,05,10,46,21.20
2013,05,05,10,47,21.20
2013,05,05,10,48,21.30
2013,05,05,10,49,21.30
2013,05,05,10,50,21.30
2013,05,05,10,51,21.30
2013,05,05,10,52,21.30
2013,05,05,10,53,21.30
2013,05,05,10,54,21.30
2013,05,05,10,55,21.40
2013,05,05,10,56,21.50
2013,05,05,10,57,21.60
2013,05,05,10,58,21.60
2013,05,05,10,59,21.60
2013,05,05,11,00,21.60
2013,05,05,11,01,21.60
2013,05,05,11,02,21.60
2013,05,05,11,03,21.60
2013,05,05,11,04,21.60
2013,05,05,11,05,21.60
2013,05,05,11,06,21.60
2013,05,05,11,07,21.60
2013,05,05,11,08,21.70
2013,05,05,11,09,21.80
2013,05,05,11,10,21.90
2013,05,05,11,11,22.00
2013,05,05,11,12,22.00
2013,05,05,11,13,22.00
2013,05,05,11,14,22.00
2013,05,05,11,15,22.00
2013,05,05,11,16,22.00
2013,05,05,11,17,21.90
2013,05,05,11,18,21.90
2013,05,05,11,19,22.00
2013,05,05,11,20,22.10
2013,05,05,11,21,22.10
2013,05,05,11,22,22.20
2013,05,05,11,23,22.10
2013,05,05,11,24,22.10
2013,05,05,11,25,22.10
2013,05,05,11,26,22.10
2013,05,05,11,27,22.10
2013,05,05,11,28,22.00
2013,05,05,11,29,22.00
2013,05,05,11,30,22.00
2013,05,05,11,31,22.00
2013,05,05,11,32,22.20
2013,05,05,11,33,22.20
2013,05,05,11,34,22.20
2013,05,05,11,35,22.20
2013,05,05,11,36,22.10
2013,05,05,11,37,22.00
2013,05,05,11,38,22.00
2013,05,05,11,39,22.10
2013,05,05,11,40,22.00
2013,05,05,11,41,22.00
2013,05,05,11,42,22.10
2013,05,05,11,43,22.10
2013,05,05,11,44,22.10
2013,05,05,11,45,22.10
2013,05,05,11,46,22.20
2013,05,05,11,47,22.20
2013,05,05,11,48,22.30
2013,05,05,11,49,22.30
2013,05,05,11,50,22.30
2013,05,05,11,51,22.30
2013,05,05,11,52,22.40
2013,05,05,11,53,22.40
2013,05,05,11,54,22.40
2013,05,05,11,55,22.40
2013,05,05,11,56,22.60
2013,05,05,11,57,22.60
2013,05,05,11,58,22.50
2013,05,05,11,59,22.50
2013,05,05,12,00,22.50
2013,05,05,12,01,22.50
2013,05,05,12,02,22.50
2013,05,05,12,03,22.50
2013,05,05,12,04,22.50
2013,05,05,12,05,22.60
2013,05,05,12,06,22.60
2013,05,05,12,07,22.60
2013,05,05,12,08,22.60
2013,05,05,12,09,22.60
2013,05,05,12,10,22.60
2013,05,05,12,11,22.60
2013,05,05,12,12,22.60
2013,05,05,12,13,22.60
2013,05,05,12,14,22.60
2013,05,05,12,15,22.60
2013,05,05,12,16,22.50
2013,05,05,12,17,22.50
2013,05,05,12,18,22.50
2013,05,05,12,19,22.60
2013,05,05,12,20,22.60
2013,05,05,12,21,22.60
2013,05,05,12,22,22.60
2013,05,05,12,23,22.60
2013,05,05,12,24,22.60
2013,05,05,12,25,22.70
2013,05,05,12,26,22.70
2013,05,05,12,27,22.80
2013,05,05,12,28,22.90
2013,05,05,12,29,22.90
2013,05,05,12,30,22.90
2013,05,05,12,31,22.90
2013,05,05,12,32,22.90
2013,05,05,12,33,22.90
2013,05,05,12,34,22.80
2013,05,05,12,35,22.80
2013,05,05,12,36,22.80
2013,05,05,12,37,22.70
2013,05,05,12,38,22.70
2013,05,05,12,39,22.70
2013,05,05,12,40,22.70
2013,05,05,12,41,22.80
2013,05,05,12,42,22.90
2013,05,05,12,43,23.10
2013,05,05,12,44,23.00
2013,05,05,12,45,22.90
2013,05,05,12,46,22.90
2013,05,05,12,47,23.10
2013,05,05,12,48,23.20
2013,05,05,12,49,23.30
2013,05,05,12,50,23.30
2013,05,05,12,51,23.30
2013,05,05,12,52,23.30
2013,05,05,12,53,23.30
2013,05,05,12,54,23.30
2013,05,05,12,55,23.40
2013,05,05,12,56,23.40
2013,05,05,12,57,23.40
2013,05,05,12,58,23.40
2013,05,05,12,59,23.30
2013,05,05,13,00,23.30
2013,05,05,13,01,23.30
2013,05,05,13,02,23.30
2013,05,05,13,03,23.30
2013,05,05,13,04,23.30
2013,05,05,13,05,23.30
2013,05,05,13,06,23.40
2013,05,05,13,07,23.60
2013,05,05,13,08,23.60
2013,05,05,13,09,23.60
2013,05,05,13,10,23.60
2013,05,05,13,11,23.60
2013,05,05,13,12,23.60
2013,05,05,13,13,23.60
2013,05,05,13,14,23.70
2013,05,05,13,15,23.70
2013,05,05,13,16,23.70
2013,05,05,13,17,23.70
2013,05,05,13,18,23.70
2013,05,05,13,19,23.70
2013,05,05,13,20,23.70
2013,05,05,13,21,23.70
2013,05,05,13,22,23.70
2013,05,05,13,23,23.70
2013,05,05,13,24,23.70
2013,05,05,13,25,23.70
2013,05,05,13,26,23.70
2013,05,05,13,27,23.70
2013,05,05,13,28,23.90
2013,05,05,13,29,24.00
2013,05,05,13,30,24.10
2013,05,05,13,31,24.10
2013,05,05,13,32,24.10
2013,05,05,13,33,24.10
2013,05,05,13,34,24.10
2013,05,05,13,35,24.10
2013,05,05,13,36,24.10
2013,05,05,13,37,24.20
2013,05,05,13,38,24.20
2013,05,05,13,39,24.20
2013,05,05,13,40,24.20
2013,05,05,13,41,24.20
2013,05,05,13,42,24.30
2013,05,05,13,43,24.30
2013,05,05,13,44,24.30
2013,05,05,13,45,24.30
2013,05,05,13,46,24.30
2013,05,05,13,47,24.40
2013,05,05,13,48,24.40
2013,05,05,13,49,24.50
2013,05,05,13,50,24.50
2013,05,05,13,51,24.50
2013,05,05,13,52,24.50
2013,05,05,13,53,24.50
2013,05,05,13,54,24.60
2013,05,05,13,55,24.70
2013,05,05,13,56,24.80
2013,05,05,13,57,24.90
2013,05,05,13,58,24.80
2013,05,05,13,59,24.80
2013,05,05,14,00,24.80
2013,05,05,14,01,24.90
2013,05,05,14,02,24.90
2013,05,05,14,03,24.90
2013,05,05,14,04,24.90
2013,05,05,14,05,24.90
2013,05,05,14,06,24.90
2013,05,05,14,07,25.00
2013,05,05,14,08,25.00
2013,05,05,14,09,25.00
2013,05,05,14,10,24.90
2013,05,05,14,11,24.90
2013,05,05,14,12,24.80
2013,05,05,14,13,24.80
2013,05,05,14,14,24.80
2013,05,05,14,15,24.80
2013,05,05,14,16,24.70
2013,05,05,14,17,24.70
2013,05,05,14,18,24.80
2013,05,05,14,19,24.80
2013,05,05,14,20,24.80
2013,05,05,14,21,24.80
2013,05,05,14,22,24.80
2013,05,05,14,23,24.80
2013,05,05,14,24,24.90
2013,05,05,14,25,25.00
2013,05,05,14,26,25.10
2013,05,05,14,27,25.20
2013,05,05,14,28,25.20
2013,05,05,14,29,25.30
2013,05,05,14,30,25.40
2013,05,05,14,31,25.60
2013,05,05,14,32,25.60
2013,05,05,14,33,25.50
2013,05,05,14,34,25.50
2013,05,05,14,35,25.60
2013,05,05,14,36,25.70
2013,05,05,14,37,25.70
2013,05,05,14,38,25.60
2013,05,05,14,39,25.60
2013,05,05,14,40,25.50
2013,05,05,14,41,25.50
2013,05,05,14,42,25.50
2013,05,05,14,43,25.60
2013,05,05,14,44,25.60
2013,05,05,14,45,25.60
2013,05,05,14,46,25.60
2013,05,05,14,47,25.60
2013,05,05,14,48,25.60
2013,05,05,14,49,25.50
2013,05,05,14,50,25.50
2013,05,05,14,51,25.60
2013,05,05,14,52,25.70
2013,05,05,14,53,25.70
2013,05,05,14,54,25.80
2013,05,05,14,55,25.80
2013,05,05,14,56,25.90
2013,05,05,14,57,25.90
2013,05,05,14,58,26.00
2013,05,05,14,59,26.00
2013,05,05,15,00,26.00
2013,05,05,15,01,26.20
2013,05,05,15,02,26.20
2013,05,05,15,03,26.20
2013,05,05,15,04,25.80
2013,05,05,15,05,25.40
2013,05,05,15,06,25.20
2013,05,05,15,07,25.00
2013,05,05,15,08,24.90
2013,05,05,15,09,24.60
2013,05,05,15,10,24.50
2013,05,05,15,11,24.40
2013,05,05,15,12,24.40
2013,05,05,15,13,24.40
2013,05,05,15,14,24.50
2013,05,05,15,15,24.60
2013,05,05,15,16,24.60
2013,05,05,15,17,24.40
2013,05,05,15,18,24.00
2013,05,05,15,19,23.70
2013,05,05,15,20,23.20
2013,05,05,15,21,22.80
2013,05,05,15,22,22.40
2013,05,05,15,23,22.10
2013,05,05,15,24,21.60
2013,05,05,15,25,21.30
2013,05,05,15,26,21.20
2013,05,05,15,27,21.20
2013,05,05,15,28,21.10
2013,05,05,15,29,21.00
2013,05,05,15,30,20.90
2013,05,05,15,31,20.90
2013,05,05,15,32,21.00
2013,05,05,15,33,21.00
2013,05,05,15,34,20.90
2013,05,05,15,35,20.90
2013,05,05,15,36,20.90
2013,05,05,15,37,20.80
2013,05,05,15,38,20.80
2013,05,05,15,39,20.70
2013,05,05,15,40,20.70
2013,05,05,15,41,20.80
2013,05,05,15,42,20.80
2013,05,05,15,43,21.00
2013,05,05,15,44,21.10
2013,05,05,15,45,21.10
2013,05,05,15,46,21.20
2013,05,05,15,47,21.40
2013,05,05,15,48,21.60
2013,05,05,15,49,21.60
2013,05,05,15,50,21.70
2013,05,05,15,51,21.80
2013,05,05,15,52,22.00
2013,05,05,15,53,22.10
2013,05,05,15,54,22.20
2013,05,05,15,55,22.30
2013,05,05,15,56,22.30
2013,05,05,15,57,22.20
2013,05,05,15,58,22.20
2013,05,05,15,59,22.30
2013,05,05,16,00,22.20
2013,05,05,16,01,22.10
2013,05,05,16,02,22.10
2013,05,05,16,03,22.10
2013,05,05,16,04,22.20
2013,05,05,16,05,22.20
2013,05,05,16,06,22.20
2013,05,05,16,07,22.10
2013,05,05,16,08,21.80
2013,05,05,16,09,21.50
2013,05,05,16,10,21.20
2013,05,05,16,11,21.10
2013,05,05,16,12,21.10
2013,05,05,16,13,21.20
2013,05,05,16,14,21.20
2013,05,05,16,15,21.20
2013,05,05,16,16,21.20
2013,05,05,16,17,21.20
2013,05,05,16,18,21.20
2013,05,05,16,19,21.10
2013,05,05,16,20,21.00
2013,05,05,16,21,21.00
2013,05,05,16,22,21.10
2013,05,05,16,23,21.30
2013,05,05,16,24,21.40
2013,05,05,16,25,21.50
2013,05,05,16,26,21.60
2013,05,05,16,27,21.40
2013,05,05,16,28,21.20
2013,05,05,16,29,21.20
2013,05,05,16,30,21.20
2013,05,05,16,31,21.20
2013,05,05,16,32,21.30
2013,05,05,16,33,21.50
2013,05,05,16,34,21.60
2013,05,05,16,35,21.60
2013,05,05,16,36,21.40
2013,05,05,16,37,21.20
2013,05,05,16,38,21.10
2013,05,05,16,39,21.10
2013,05,05,16,40,21.20
2013,05,05,16,41,21.30
2013,05,05,16,42,21.30
2013,05,05,16,43,21.50
2013,05,05,16,44,21.60
2013,05,05,16,45,21.60
2013,05,05,16,46,21.70
2013,05,05,16,47,21.80
2013,05,05,16,48,21.90
2013,05,05,16,49,22.10
2013,05,05,16,50,22.20
2013,05,05,16,51,22.30
2013,05,05,16,52,22.40
2013,05,05,16,53,22.50
2013,05,05,16,54,22.50
2013,05,05,16,55,22.50
2013,05,05,16,56,22.50
2013,05,05,16,57,22.30
2013,05,05,16,58,22.10
2013,05,05,16,59,21.90
2013,05,05,17,00,21.80
2013,05,05,17,01,21.80
2013,05,05,17,02,21.80
2013,05,05,17,03,21.80
2013,05,05,17,04,21.90
2013,05,05,17,05,22.00
2013,05,05,17,06,22.10
2013,05,05,17,07,22.10
2013,05,05,17,08,22.10
2013,05,05,17,09,22.20
2013,05,05,17,10,22.30
2013,05,05,17,11,22.50
2013,05,05,17,12,22.60
2013,05,05,17,13,22.70
2013,05,05,17,14,22.70
2013,05,05,17,15,22.70
2013,05,05,17,16,22.60
2013,05,05,17,17,22.70
2013,05,05,17,18,22.80
2013,05,05,17,19,22.90